User: anonymous
Location: Unspecified
(0.0000°N, 0.0000°E)
Time: 22:30:15
(UTC+02:00)
Language:

Palapa 6 Rocket - Orbit

View from above orbital plane
View from above orbital plane
View from above satellite
View from above satellite

Ground track
Ground track

The orbit data is extracted from the following two-line orbital elements,

1 20571U 90034B   14209.48458005  .00001872  00000-0  24083-3 0  4916
2 20571 022.7479 353.1138 0518056 126.3202 287.2268 14.09509823242894
Epoch (UTC): 28 July 2014 11:37:47
Eccentricity: 0.0518056
inclination: 22.7479°
perigee height: 486 km
apogee height: 1236 km
right ascension of ascending node: 353.1138°
argument of perigee: 126.3202°
revolutions per day: 14.09509823
mean anomaly at epoch: 287.2268°
orbit number at epoch: 24289

The dashed part of the orbit path shows where the satellite is in the earth's shadow,  

DLR